Theta_e
316 320 320 321 323 323 325 326 327 331 334 337 331 344 345 355 356 356 357 356 355 354 352 349 351 349 349 346 344 343 341 339 339 337 337 337 336 335 335 333 334 333 332
319 319 319 319 321 324 322 322 329 330 334 337 341 341 346 344 353 355 357 356 355 352 349 350 350 349 350 347 344 343 340 338 339 337 336 335 334 333 333 333 332 332 332
320 320 319 320 323 323 323 324 324 328 331 336 341 343 347 349 350 354 356 355 351 350 351 350 351 351 349 345 344 342 338 337 337 337 337 334 333 332 330 331 332 332 331
317 320 319 322 322 324 327 327 325 325 331 336 339 342 346 346 349 354 355 353 348 351 351 351 350 349 346 345 343 341 338 338 336 335 334 334 332 329 329 330 331 331 329
316 321 322 322 322 323 325 327 326 327 331 334 337 341 342 346 348 352 352 351 350 350 350 351 349 346 344 342 341 339 337 335 334 334 333 334 332 330 328 329 331 330 330
319 319 320 322 321 323 324 328 326 327 329 334 337 339 342 344 348 350 350 350 350 350 350 348 345 343 342 341 339 337 336 336 335 334 333 333 332 330 331 329 330 331 329
315 318 320 319 321 321 323 325 328 331 329 331 339 340 341 344 347 346 349 350 351 349 348 345 343 340 339 338 334 333 335 335 333 334 333 332 332 331 330 331 330 330 331
314 316 318 319 319 320 321 325 326 328 330 337 339 342 342 346 347 346 347 349 348 346 346 344 342 340 338 337 335 333 333 332 332 331 332 333 332 331 329 331 330 330 330
314 315 315 315 319 320 320 324 326 329 332 336 340 344 343 345 345 346 347 346 346 345 343 342 340 338 337 335 334 333 332 333 332 331 332 332 331 332 330 330 330 331 331
314 314 316 317 318 319 320 324 325 329 334 336 340 344 345 345 346 346 345 345 343 341 339 339 338 337 336 334 336 333 334 332 331 330 331 331 329 328 329 329 329 330 329
314 314 316 318 319 318 321 323 328 330 335 335 341 344 344 344 343 342 343 341 340 339 338 337 335 335 335 335 334 333 333 332 331 331 330 329 329 329 328 329 330 330 329
314 315 316 318 318 319 322 325 328 334 337 339 342 343 342 339 339 339 339 337 337 336 336 336 335 334 334 333 332 332 333 332 331 332 330 330 329 330 329 329 329 329 328
315 316 317 319 319 320 321 326 332 335 337 340 341 341 338 332 332 334 333 334 335 334 335 334 332 332 330 330 332 331 331 330 330 330 330 330 330 330 329 328 328 328 329
315 317 318 319 320 321 323 326 331 335 338 339 341 338 336 331 330 332 332 333 332 332 331 329 328 328 329 329 327 327 329 329 329 329 330 329 329 329 326 328 329 329 329
315 317 318 319 319 320 323 327 332 337 339 340 339 337 334 333 332 332 332 332 331 329 328 327 327 328 328 327 328 329 328 328 329 329 329 329 329 328 329 329 329 328 328
316 317 318 321 322 324 323 319 327 334 339 338 337 335 334 333 332 331 331 333 331 328 328 329 330 330 329 330 330 330 329 329 329 329 329 328 327 327 327 327 327 328 327
317 318 320 322 325 327 326 323 324 319 335 334 333 332 332 331 330 330 331 331 329 329 331 330 330 330 330 329 329 329 328 328 327 328 328 327 327 326 326 327 326 326 326
321 323 324 328 329 327 329 330 330 329 326 319 327 329 330 330 329 329 329 329 328 330 330 330 330 329 328 328 327 328 328 327 327 327 327 327 327 327 326 326 326 326 326
324 326 332 332 332 332 332 332 329 325 321 318 321 326 328 328 328 327 327 328 330 330 329 329 329 328 328 327 327 327 327 326 327 327 327 327 327 326 326 326 326 325 325
327 331 332 331 332 332 330 327 325 324 324 321 319 318 323 324 325 326 326 326 326 326 327 327 327 327 326 326 325 325 325 325 325 326 327 327 326 326 326 325 326 326 325
331 331 331 331 331 329 328 326 326 324 322 320 320 323 325 324 324 326 326 325 324 325 326 326 326 325 325 324 324 324 324 324 325 327 326 326 326 326 326 325 325 326 326
331 331 331 330 329 329 328 327 325 323 321 319 317 319 320 318 318 320 322 323 324 324 324 323 324 324 325 326 326 326 327 327 326 326 326 324 324 325 326 326 325 324 323
331 331 331 330 327 325 324 322 321 320 319 319 317 316 315 314 314 315 317 318 318 319 319 319 320 320 322 324 324 325 325 326 326 326 325 326 326 324 321 319 318 315 313
330 330 328 327 326 325 323 321 320 318 316 313 313 313 311 310 310 311 312 313 314 314 314 315 316 316 317 320 322 323 324 323 323 324 324 321 319 318 317 314 310 307 303
330 328 327 326 325 322 320 319 317 315 311 309 308 309 307 307 307 307 308 307 307 307 307 310 313 314 315 316 317 319 320 320 317 318 316 313 310 308 304 301 300 300 299
328 327 326 325 323 320 318 317 315 311 308 307 305 305 304 303 304 303 303 302 300 300 301 301 305 308 309 309 309 310 311 312 310 306 304 302 300 299 298 297 297 297 298
Wind_Speed
23 23 21 23 21 20 23 25 26 25 26 25 24 26 27 30 34 35 30 28 28 26 22 22 23 20 15 14 14 14 17 8 4 2 8 8 7 5 6 2 5 4 7
21 22 20 21 21 21 24 24 24 25 25 24 23 29 31 33 31 30 30 27 27 27 25 20 21 18 18 13 11 12 10 10 11 4 11 8 5 5 5 4 5 4 9
20 19 21 24 24 24 25 25 26 27 26 26 26 27 28 31 32 32 31 29 27 28 24 24 21 20 18 15 13 10 15 13 11 8 8 8 5 3 4 4 7 5 3
29 24 24 23 20 20 23 26 28 29 28 27 27 29 29 32 31 30 28 29 25 28 24 25 21 19 19 17 13 13 13 12 11 10 9 10 6 2 3 2 5 7 8
31 26 24 22 17 20 27 29 29 28 28 29 28 29 30 30 29 30 30 29 25 23 22 21 19 19 19 15 14 14 13 8 8 10 8 7 9 6 6 5 6 9 8
27 27 27 27 20 21 28 29 32 31 30 28 29 28 28 29 29 32 32 27 22 23 21 19 16 17 17 16 15 14 13 11 7 6 10 10 11 11 10 10 12 9 2
27 28 26 26 27 21 27 28 29 28 33 31 29 28 28 32 26 32 33 25 23 22 21 19 14 15 17 16 13 10 10 9 8 9 10 11 12 14 13 12 14 13 4
28 28 28 26 30 24 26 28 31 29 29 29 29 28 29 26 26 33 32 25 21 18 18 19 20 17 20 17 14 11 9 8 8 6 7 7 10 13 15 13 11 8 7
28 28 22 41 32 30 27 27 28 28 30 25 27 26 28 21 25 34 31 22 19 17 17 17 20 17 20 18 16 15 12 11 10 9 6 10 10 12 13 12 11 12 5
27 30 29 29 33 31 30 28 30 31 24 22 27 27 24 28 33 34 27 20 19 17 17 17 19 17 21 19 16 16 15 15 12 9 9 10 9 11 13 11 11 11 8
26 30 31 35 33 30 32 29 26 25 23 23 27 23 26 33 32 32 26 22 24 21 19 12 10 10 14 16 17 15 17 18 15 12 11 9 9 8 11 11 10 9 9
29 30 33 34 27 26 26 27 26 27 23 25 24 23 22 28 33 32 23 15 26 19 16 15 13 12 13 12 12 13 13 18 19 17 14 12 11 11 10 9 8 7 1
27 30 31 31 29 30 29 27 25 25 27 26 27 22 24 23 27 26 16 20 19 19 21 20 16 14 12 11 10 9 15 20 18 16 13 13 10 11 10 8 6 7 3
29 29 27 30 29 28 28 29 27 27 28 30 26 20 23 22 25 25 23 23 23 24 22 20 19 17 12 14 14 13 15 14 14 15 10 10 8 8 9 7 7 6 5
29 28 28 26 26 28 30 26 31 35 34 29 25 27 25 22 23 25 24 22 24 25 24 23 19 15 13 14 11 10 11 12 11 11 10 10 8 8 7 6 6 7 8
24 25 25 23 24 24 17 8 14 26 34 31 28 28 25 25 28 26 24 24 24 22 22 18 15 14 14 14 14 12 12 12 11 12 12 11 11 8 7 5 3 5 7
29 25 22 22 20 24 23 13 8 34 34 31 27 28 29 36 31 26 26 26 21 21 19 16 14 15 15 16 13 13 11 13 11 10 10 10 7 6 6 3 3 3 4
18 20 20 21 27 28 24 24 25 24 20 22 34 37 37 34 31 28 28 26 22 12 17 15 15 15 15 14 15 14 12 11 9 8 8 9 8 7 5 4 2 3 1
15 17 26 28 36 29 28 28 29 27 25 25 31 33 32 31 29 25 24 20 15 14 14 15 14 15 15 13 12 11 10 9 8 7 7 7 7 6 5 4 4 3 4
20 26 28 29 27 25 26 27 26 25 23 22 22 24 30 28 22 17 17 16 15 14 15 16 15 15 13 12 12 11 10 9 8 6 5 7 6 6 3 5 4 3 6
24 28 31 28 26 28 25 24 25 24 24 22 22 21 20 20 17 17 18 17 19 16 16 18 15 14 13 11 10 8 8 9 8 7 8 7 6 4 3 3 2 3 4
25 25 25 24 24 24 25 26 27 26 24 22 25 28 25 22 22 24 23 21 22 22 22 23 21 20 17 14 7 6 7 8 9 9 8 7 5 3 3 4 7 11 11
21 20 25 25 30 33 29 27 26 25 24 24 24 23 23 22 24 27 26 25 27 23 19 20 18 17 17 19 16 16 16 13 9 8 9 9 12 15 13 13 11 13 13
26 27 28 26 26 26 27 26 26 26 25 23 23 22 23 23 26 28 27 24 22 21 21 19 18 19 19 16 15 15 15 13 15 16 17 17 17 16 16 16 18 18 16
24 25 26 27 25 26 28 25 25 24 23 23 22 22 23 24 24 27 29 25 23 21 18 18 18 17 15 15 15 15 12 13 14 12 15 17 19 18 20 21 20 18 17
25 25 24 26 27 26 25 24 24 24 24 23 23 23 24 25 24 23 24 24 23 24 27 25 24 23 23 23 21 18 16 14 20 24 25 23 22 21 20 22 20 19 17
Wind_Direction
245 243 242 250 249 252 254 255 257 256 258 264 260 272 257 228 219 220 221 221 220 214 209 209 218 220 235 218 220 215 233 196 190 254 154 167 208 212 256 279 288 292 285
268 252 243 250 254 251 245 253 259 258 259 257 254 250 246 238 231 225 221 219 213 205 209 204 206 213 222 217 222 212 215 218 224 187 156 172 177 205 259 270 276 279 238
285 275 240 243 246 250 255 255 254 255 258 255 250 245 242 236 229 224 218 214 214 205 203 206 205 202 204 213 210 218 223 220 220 178 151 170 168 212 279 267 260 224 221
295 270 260 250 250 263 267 257 252 253 253 251 248 242 238 237 228 220 210 213 222 200 200 207 202 199 205 197 205 213 219 232 194 147 146 167 153 211 214 264 180 149 135
282 282 291 249 253 260 268 263 255 251 251 249 246 242 237 236 225 209 204 210 215 196 195 200 199 206 200 194 201 207 213 198 166 145 152 162 169 166 198 206 180 160 166
309 270 274 286 249 251 259 264 253 250 251 253 248 240 240 235 225 202 201 203 205 188 190 191 198 192 179 182 199 202 207 180 137 176 183 195 176 185 198 189 164 164 172
278 282 269 275 267 254 262 262 265 248 242 243 253 241 242 232 221 204 192 194 189 184 183 176 174 177 184 189 194 195 180 189 191 197 205 200 192 191 193 197 189 196 215
267 266 268 275 269 268 259 248 257 261 255 240 239 240 238 233 212 188 183 182 182 188 183 183 185 190 187 186 197 181 189 197 203 185 213 205 201 204 196 194 197 192 162
259 263 253 272 264 268 267 264 256 259 248 258 236 230 233 208 192 181 169 160 169 170 174 188 194 195 190 186 183 186 189 181 186 195 209 195 194 192 187 189 187 173 165
258 258 260 249 256 261 266 261 254 260 238 246 236 227 203 190 174 173 162 153 154 169 182 194 200 192 183 189 188 184 187 182 175 175 162 173 189 186 187 197 192 195 201
247 254 255 261 256 263 267 266 263 258 254 238 229 202 182 175 167 164 160 166 171 180 167 164 170 171 173 189 206 198 207 187 171 165 159 164 166 187 195 202 210 221 235
254 252 250 255 259 264 267 260 256 251 247 226 206 172 153 163 169 167 167 171 173 163 158 161 171 178 176 186 192 198 207 178 170 167 161 169 186 190 194 214 220 215 265
252 251 251 253 260 256 260 257 252 247 223 202 172 152 140 151 156 159 150 147 145 143 155 159 158 158 157 156 167 183 174 170 171 170 185 189 196 189 186 195 218 229 221
256 250 244 251 248 252 256 257 246 229 202 183 162 143 134 142 139 146 139 129 132 130 132 136 135 132 133 150 140 140 154 161 164 163 182 182 166 177 194 194 202 212 217
244 243 241 245 252 255 251 257 236 213 176 160 146 141 144 153 158 149 141 135 133 138 135 131 129 135 134 144 151 156 148 155 159 162 169 159 168 186 187 177 192 216 244
234 239 239 238 243 247 180 135 188 177 157 141 143 144 149 149 149 151 151 152 145 142 135 141 148 159 161 155 157 168 161 166 168 169 177 184 184 193 184 177 202 234 248
226 228 235 236 235 162 131 128 132 83 129 135 140 144 148 147 151 152 152 144 141 144 140 146 153 158 153 158 159 163 156 157 158 167 175 176 185 189 171 181 253 290 314
227 228 241 199 130 143 137 149 112 106 100 87 119 133 138 142 142 139 139 139 141 125 148 149 153 159 156 151 150 141 140 141 148 147 160 162 151 151 162 153 226 296 329
226 195 142 132 134 133 124 115 105 103 103 104 104 114 128 132 132 134 133 134 130 127 136 135 131 133 133 127 124 125 131 139 147 157 151 158 161 174 189 195 206 218 242
202 133 114 121 115 115 102 102 103 107 105 106 109 116 121 120 120 116 120 124 126 122 127 125 127 128 132 137 137 141 150 159 160 168 174 156 167 166 195 201 225 219 234
112 113 111 105 104 105 103 108 107 104 106 107 113 120 122 109 100 123 116 123 137 116 125 126 124 131 129 139 144 154 168 169 175 172 161 152 150 158 187 227 233 261 24
123 113 110 108 111 108 105 104 106 107 111 110 105 103 110 97 96 97 109 122 117 118 109 104 106 105 106 97 105 159 153 146 145 153 159 161 156 173 142 113 90 79 71
125 114 110 103 101 102 105 107 108 110 111 111 110 104 101 101 104 101 99 105 98 104 103 106 111 110 109 101 104 104 93 89 87 138 145 127 112 100 95 90 83 76 62
105 104 110 109 110 110 107 111 113 114 109 101 102 104 104 105 105 105 104 113 116 115 119 122 121 114 112 119 118 118 115 110 100 108 120 115 102 95 93 83 75 80 73
111 113 107 112 111 109 114 115 114 111 105 109 112 112 110 109 107 110 105 102 114 115 108 109 118 122 108 106 111 112 103 108 107 111 111 107 103 99 93 90 84 77 69
110 115 115 118 115 117 116 117 117 117 115 116 113 112 113 110 107 112 118 113 106 108 101 98 101 104 103 98 98 102 103 103 99 100 102 96 96 96 94 91 87 87 81